Finley Real Estate, NSW, 2713 Berrigan

Thinking about buying in Finley? Now could not be a better time, with a whopping 2127 properties either residential or commercial there's certainly plenty to choose from.

The average property price for this area is $261,000 with prices in this suburb ranging from $22,000 to $589,000.

Distance to the coast is 236 Km.

Finley Real Estate Market Outlook

In Finley there has been a history of lower than average prices and demand, offering opportunities for investors or first home owners, especially in the context of the growth in working from home. Low average incomes in Finley is reflected in smaller and lower quality accommodation. Over time this may change providsing long-term returns but in the short to medium term, prices are likely to be less than state averages. Low average earnings from people in Finley leads to lower quality housing which also negatively impacts the provision of facilities. As a consequence this area is often seen as less desirable, with lower quality of housing and slower price growth. Low population density implies low demand and limits housing choices and price increases. Could be a good entry point for first home buyers needing to somehow get into the market. With very low industrial sector presence in Finley the focus is on lifestyle, driving specific demand around facilities, services, and open space. Most people are employed in service sectors with a higher than average proportion being able to work from home. This may incease demand over the medium term.

About

For Sale

Elders Real Estate 14 WILLIAM ST, FINLEY, NSW, 2713 3 1 5 $278,000
Elders Real Estate 32 DENISON ST, FINLEY, NSW, 2713 3 1 3

More

Local Schools


Finley Public School

Finley High School

St Joseph's Primary School

(While the above schools are located with the suburb of Finley there may also be nearby schools whose catchments cover this suburb)

Local Crime Stats


Average Local Climate by month


(mm)
RAIN
Min (°C)
TEMP
Max (°C)
TEMP
Min (%)
HUMIDITY
Max (%)
HUMIDITY
(m/sec)
WIND
(MJ/sq m)
SOLAR
Jan1.31633.521.775.94.227.4
Feb2.11631.728.081.33.623.4
Mar1.313.328.032.083.83.519.1
Apr1.39.723.240.390.03.014.4
May1.06.018.053.295.82.810.4
Jun1.23.714.266.496.72.68.3
Jul1.53.813.866.997.63.08.7
Aug1.33.515.257.095.63.011.8
Sept1.45.118.946.495.63.416.3
Oct1.07.624.13492.83.521.5
Nov1.411.328.026.887.43.925.0
Dec1.814.231.322.479.34.028.3

source: Australian Government Bureau of Meteorology

Recently Sold

10-05-2022 $380,000 22 WOLLAMAI ST FINLEY 2713
03-05-2022 $215,000 20 BERRIGAN RD FINLEY 2713
03-05-2022 $3,850,000 144 PINE LODGE RD FINLEY 2713
02-05-2022 $390,000 73 TONGS ST FINLEY 2713
26-04-2022 $435,000 105 COREE ST FINLEY 2713
26-04-2022 $379,000 122 COREE ST FINLEY 2713
14-04-2022 $295,000 81 WOLLAMAI ST FINLEY 2713
14-04-2022 $285,000 64 WELLS ST FINLEY 2713
08-04-2022 $290,000 126 MURRAY ST FINLEY 2713
07-04-2022 $110,000 107 HOWE ST FINLEY 2713
04-04-2022 $325,000 24 ULUPNA ST FINLEY 2713
24-03-2022 $472,000 2 HARLEY CT FINLEY 2713
23-03-2022 $265,000 17 ULUPNA ST FINLEY 2713
23-03-2022 $435,000 94 WOLLAMAI ST FINLEY 2713
21-03-2022 $375,000 14 HAMILTON ST FINLEY 2713
17-03-2022 $3,292,870 336 LINCOLN RD FINLEY 2713
15-03-2022 $180,000 46 TUPPAL ST FINLEY 2713
15-03-2022 $295,000 11 QUIRK ST FINLEY 2713
09-03-2022 $210,000 100 WOLLAMAI ST FINLEY 2713
04-03-2022 $200,000 58 TOCUMWAL ST FINLEY 2713
04-03-2022 $140,000 21 WALTER ST FINLEY 2713
25-02-2022 $4,010,000 251 SOUTH COREE RD FINLEY 2713
25-02-2022 $130,000 76 COREE ST FINLEY 2713
25-02-2022 $285,000 47 SCOULLAR ST FINLEY 2713
21-02-2022 $35,000 87 COREE ST FINLEY 2713
07-02-2022 $1,272,900 15829 RIVERINA HWY FINLEY 2713
04-02-2022 $445,000 15955 RIVERINA HWY FINLEY 2713
24-01-2022 $263,000 68 FINLEY ST FINLEY 2713
24-01-2022 $263,000 68 FINLEY ST FINLEY 2713
20-01-2022 $233,000 23 HAMPDEN ST FINLEY 2713
17-01-2022 $370,000 20 WOLLAMAI ST FINLEY 2713
14-01-2022 $375,000 2 FORREST CT FINLEY 2713
10-01-2022 $200,000 3 / 23 ULUPNA ST FINLEY 2713
22-12-2021 $445,000 594 PLUMPTONS RD FINLEY 2713
22-12-2021 $214,500 135 MURRAY ST FINLEY 2713
21-12-2021 $100,000 33 HAMILTON ST FINLEY 2713
20-12-2021 $100,000 35 HAMILTON ST FINLEY 2713
17-12-2021 $1,526,000 33 MCMURRAYS RD FINLEY 2713
17-12-2021 $215,000 137 DENISON ST FINLEY 2713
15-12-2021 $710,000 540 PINE LODGE RD FINLEY 2713
15-12-2021 $180,000 1 WOLLAMAI ST FINLEY 2713
10-12-2021 $220,000 44 HAMPDEN ST FINLEY 2713
10-12-2021 $189,000 8 MCALLISTER ST FINLEY 2713
22-11-2021 $265,000 80 TOCUMWAL ST FINLEY 2713
19-11-2021 $1,660,000 16 MURRAY ST FINLEY 2713
17-11-2021 $65,000 16 WALTER ST FINLEY 2713
17-11-2021 $210,000 94 TOCUMWAL ST FINLEY 2713
17-11-2021 $285,000 66 HAMPDEN ST FINLEY 2713
17-11-2021 $65,000 16 WALTER ST FINLEY 2713
17-11-2021 $210,000 94 TOCUMWAL ST FINLEY 2713

Residz covers 12m+ Australian properties and brings together a wealth of data to give you a better understanding of an area. From crime and schools to bush fire, flood risk and more. Begin your search for properties for sale or learn more about where you currently reside. Residz is an exciting next-generation Real Estate platform getting better by the day!